When you browse on this site, cookies collect data to enhance your experience and personalize the content and advertising you see.
Visit our Privacy Policy to learn more. By continuing to use the site, you agree to this use of cookies and data.
  • In Switzerland
  • List of Countries
  • For 7 days
  • Water Temperature
  • Weather Map
  • Weather Widgets
  • user-avatar
    Login

    Hourly Weather Maun

    Today, 8 April, Wednesday

    Time Temperature Precipitation Wind Pressure Humidity
    00:00 +22°C° 0 mm 0 mps 680 mmHg 46%
    01:00 +22°C° 0 mm 0 mps 680 mmHg 47%
    02:00 +22°C° 0 mm 0 mps 680 mmHg 49%
    03:00 +23°C° 0 mm 1 mps 680 mmHg 50%
    04:00 +23°C° 0 mm 1 mps 680 mmHg 51%
    05:00 +23°C° 0 mm 2 mps 680 mmHg 52%
    06:00 +23°C° 0 mm 1 mps 681 mmHg 49%
    07:00 +24°C° 0 mm 1 mps 681 mmHg 46%
    08:00 +25°C° 0 mm 1 mps 682 mmHg 43%
    09:00 +27°C° 0 mm 1 mps 683 mmHg 38%
    10:00 +30°C° 0 mm 1 mps 683 mmHg 33%
    11:00 +34°C° 0 mm 2 mps 684 mmHg 29%
    12:00 +34°C° 0 mm 2 mps 683 mmHg 28%
    13:00 +35°C° 0 mm 2 mps 682 mmHg 27%
    14:00 +35°C° 0 mm 2 mps 681 mmHg 25%
    15:00 +34°C° 0 mm 2 mps 681 mmHg 26%
    16:00 +34°C° 0 mm 2 mps 681 mmHg 26%
    17:00 +32°C° 0 mm 1 mps 680 mmHg 27%
    18:00 +31°C° 0 mm 1 mps 680 mmHg 29%
    19:00 +29°C° 0 mm 1 mps 681 mmHg 31%
    20:00 +25°C° 0 mm 0 mps 681 mmHg 34%
    21:00 +27°C° 0 mm 1 mps 681 mmHg 35%
    22:00 +27°C° 0 mm 1 mps 681 mmHg 36%
    23:00 +26°C° 0 mm 1 mps 682 mmHg 37%

    Tomorrow, 9 April, Thursday

    Time Temperature Precipitation Wind Pressure Humidity
    00:00 +26°C° 0 mm 1 mps 682 mmHg 38%
    01:00 +26°C° 0 mm 1 mps 682 mmHg 39%
    02:00 +25°C° 0 mm 2 mps 682 mmHg 40%
    03:00 +25°C° 0 mm 2 mps 682 mmHg 42%
    04:00 +25°C° 0 mm 3 mps 682 mmHg 43%
    05:00 +26°C° 0 mm 4 mps 683 mmHg 45%
    06:00 +25°C° 0 mm 4 mps 683 mmHg 49%
    07:00 +25°C° 0 mm 5 mps 684 mmHg 54%
    08:00 +23°C° 0 mm 5 mps 684 mmHg 58%
    09:00 +26°C° 0 mm 5 mps 685 mmHg 53%
    10:00 +28°C° 0 mm 5 mps 685 mmHg 48%
    11:00 +30°C° 0 mm 5 mps 686 mmHg 44%
    12:00 +33°C° 0 mm 5 mps 685 mmHg 39%
    13:00 +34°C° 0 mm 4 mps 684 mmHg 34%
    14:00 +35°C° 0 mm 4 mps 684 mmHg 29%
    15:00 +34°C° 0 mm 4 mps 683 mmHg 34%
    16:00 +32°C° 0 mm 4 mps 683 mmHg 39%
    17:00 +29°C° 0 mm 4 mps 682 mmHg 44%
    18:00 +28°C° 0 mm 3 mps 682 mmHg 46%
    19:00 +27°C° 0 mm 2 mps 683 mmHg 47%
    20:00 +27°C° 0 mm 1 mps 683 mmHg 49%
    21:00 +26°C° 0 mm 1 mps 683 mmHg 52%
    22:00 +25°C° 0 mm 1 mps 683 mmHg 55%
    23:00 +24°C° 0 mm 2 mps 683 mmHg 58%

    Day after tomorrow, 10 April, Friday

    Time Temperature Precipitation Wind Pressure Humidity
    00:00 +24°C° 0 mm 2 mps 683 mmHg 59%
    01:00 +24°C° 0 mm 2 mps 683 mmHg 61%
    02:00 +23°C° 0 mm 2 mps 683 mmHg 62%
    03:00 +22°C° 0 mm 3 mps 684 mmHg 65%
    04:00 +21°C° 0 mm 3 mps 684 mmHg 68%
    05:00 +21°C° 0 mm 3 mps 684 mmHg 71%
    06:00 +21°C° 0 mm 4 mps 684 mmHg 70%
    07:00 +21°C° 0 mm 4 mps 684 mmHg 69%
    08:00 +21°C° 0 mm 4 mps 685 mmHg 67%
    09:00 +25°C° 0 mm 4 mps 685 mmHg 60%
    10:00 +27°C° 0 mm 4 mps 685 mmHg 53%
    11:00 +29°C° 0 mm 3 mps 686 mmHg 46%
    12:00 +30°C° 0 mm 3 mps 685 mmHg 42%
    13:00 +31°C° 0 mm 3 mps 685 mmHg 38%
    14:00 +34°C° 0 mm 2 mps 684 mmHg 33%
    15:00 +32°C° 0 mm 2 mps 684 mmHg 35%
    16:00 +31°C° 0 mm 2 mps 683 mmHg 37%
    17:00 +31°C° 0 mm 2 mps 683 mmHg 38%
    18:00 +29°C° 0 mm 2 mps 683 mmHg 43%
    19:00 +28°C° 0 mm 2 mps 683 mmHg 47%
    20:00 +26°C° 0 mm 1 mps 682 mmHg 52%
    21:00 +26°C° 0 mm 1 mps 683 mmHg 52%
    22:00 +26°C° 0 mm 1 mps 683 mmHg 52%
    23:00 +25°C° 0 mm 1 mps 683 mmHg 52%

    11 April, Saturday

    Time Temperature Precipitation Wind Pressure Humidity
    00:00 +24°C° 0 mm 1 mps 683 mmHg 55%
    01:00 +23°C° 0 mm 2 mps 682 mmHg 58%
    02:00 +21°C° 0 mm 2 mps 682 mmHg 60%
    03:00 +21°C° 0 mm 2 mps 682 mmHg 64%
    04:00 +21°C° 0 mm 2 mps 682 mmHg 67%
    05:00 +20°C° 0 mm 2 mps 682 mmHg 71%
    06:00 +21°C° 0 mm 2 mps 683 mmHg 69%
    07:00 +23°C° 0 mm 2 mps 683 mmHg 66%
    08:00 +23°C° 0 mm 2 mps 684 mmHg 64%
    09:00 +26°C° 0 mm 2 mps 684 mmHg 55%
    10:00 +28°C° 0 mm 3 mps 684 mmHg 46%
    11:00 +31°C° 0 mm 3 mps 685 mmHg 37%
    12:00 +33°C° 0 mm 3 mps 684 mmHg 34%
    13:00 +34°C° 0 mm 2 mps 683 mmHg 30%
    14:00 +35°C° 0 mm 2 mps 683 mmHg 26%
    15:00 +34°C° 0 mm 1 mps 682 mmHg 28%
    16:00 +33°C° 0 mm 1 mps 682 mmHg 30%
    17:00 +32°C° 0 mm 1 mps 681 mmHg 31%
    18:00 +31°C° 0 mm 1 mps 682 mmHg 34%
    19:00 +29°C° 0 mm 1 mps 682 mmHg 36%
    20:00 +28°C° 0 mm 1 mps 682 mmHg 38%
    21:00 +28°C° 0 mm 1 mps 682 mmHg 40%
    22:00 +27°C° 0 mm 1 mps 682 mmHg 41%
    23:00 +27°C° 0 mm 1 mps 682 mmHg 43%

    12 April, Sunday

    Time Temperature Precipitation Wind Pressure Humidity
    00:00 +26°C° 0 mm 1 mps 682 mmHg 44%
    01:00 +26°C° 0 mm 1 mps 682 mmHg 46%
    02:00 +26°C° 0 mm 1 mps 682 mmHg 47%
    03:00 +25°C° 0 mm 1 mps 682 mmHg 49%
    04:00 +25°C° 0 mm 2 mps 682 mmHg 50%
    05:00 +25°C° 0 mm 2 mps 682 mmHg 51%
    06:00 +25°C° 0 mm 2 mps 682 mmHg 51%
    07:00 +25°C° 0 mm 2 mps 682 mmHg 51%
    08:00 +26°C° 0 mm 2 mps 683 mmHg 51%
    09:00 +28°C° 0 mm 2 mps 683 mmHg 44%
    10:00 +31°C° 0 mm 2 mps 684 mmHg 37%
    11:00 +35°C° 0 mm 2 mps 684 mmHg 31%
    12:00 +33°C° 0 mm 1 mps 683 mmHg 30%
    13:00 +33°C° 0 mm 1 mps 682 mmHg 29%
    14:00 +33°C° 0 mm 1 mps 681 mmHg 28%
    15:00 +33°C° 0 mm 1 mps 681 mmHg 28%
    16:00 +33°C° 0 mm 1 mps 681 mmHg 28%
    17:00 +33°C° 0 mm 1 mps 681 mmHg 28%
    18:00 +31°C° 0 mm 2 mps 681 mmHg 32%
    19:00 +29°C° 0 mm 2 mps 680 mmHg 37%
    20:00 +27°C° 0 mm 2 mps 680 mmHg 41%
    21:00 +27°C° 0 mm 2 mps 680 mmHg 43%
    22:00 +26°C° 0 mm 2 mps 680 mmHg 46%
    23:00 +25°C° 0 mm 2 mps 680 mmHg 49%

    13 April, Monday

    Time Temperature Precipitation Wind Pressure Humidity
    00:00 +25°C° 0 mm 2 mps 680 mmHg 51%
    01:00 +25°C° 0 mm 2 mps 680 mmHg 52%
    02:00 +24°C° 0 mm 1 mps 680 mmHg 54%
    03:00 +24°C° 0 mm 1 mps 680 mmHg 55%
    04:00 +24°C° 0 mm 1 mps 680 mmHg 56%
    05:00 +23°C° 0 mm 1 mps 680 mmHg 57%
    06:00 +24°C° 0 mm 1 mps 680 mmHg 55%
    07:00 +25°C° 0 mm 1 mps 681 mmHg 52%
    08:00 +26°C° 0 mm 1 mps 681 mmHg 50%
    09:00 +27°C° 0 mm 1 mps 682 mmHg 45%
    10:00 +29°C° 0 mm 2 mps 682 mmHg 40%
    11:00 +31°C° 0 mm 2 mps 682 mmHg 35%
    12:00 +32°C° 0 mm 2 mps 682 mmHg 32%
    13:00 +34°C° 0 mm 2 mps 681 mmHg 29%
    14:00 +35°C° 0 mm 2 mps 681 mmHg 26%
    15:00 +34°C° 0 mm 2 mps 680 mmHg 28%
    16:00 +32°C° 0 mm 1 mps 680 mmHg 30%
    17:00 +31°C° 0 mm 1 mps 679 mmHg 33%
    18:00 +30°C° 0 mm 1 mps 679 mmHg 35%
    19:00 +29°C° 0 mm 1 mps 680 mmHg 37%
    20:00 +27°C° 0 mm 1 mps 680 mmHg 39%
    21:00 +27°C° 0 mm 1 mps 680 mmHg 42%
    22:00 +26°C° 0 mm 1 mps 680 mmHg 45%
    23:00 +25°C° 0 mm 1 mps 680 mmHg 48%
    Show more